Location: Caltech
(34.1382°N, 118.1253°W)
Time: 16:34:29
(UTC-08:00)

Iridium 62 - Visible Passes

Search period start: 28 February 2015 00:00
Search period end: 10 March 2015 01:00
Orbit: 776 x 779 km, 86.4° (Epoch: 28 February)

Date Brightness Start Highest point End Pass type
(mag) Time Alt. Az. Time Alt. Az. Time Alt. Az.
28 Feb 8.0 03:44:32 17° N 03:44:32 17° N 03:45:38 10° N visible
01 Mar 8.5 03:11:24 12° NNE 03:11:24 12° NNE 03:11:47 10° NNE visible
02 Mar 8.1 04:18:42 11° NNW 04:18:42 11° NNW 04:18:57 10° NNW visible
03 Mar 8.3 03:45:29 11° N 03:45:29 11° N 03:45:45 10° N visible
